Location: Cortada Guamacho
(10.5667°N, 67.0833°W)
Time: 04:13:30
(UTC+00:00)

Cosmos 2228 Rocket - Pass Details

Date: 03 July 2022
Orbit: 618 x 651 km, 82.5° (Epoch: 14 August)

Event Time Altitude Azimuth Distance (km) Brightness Sun altitude
Rises 08:58:13 0° 340° (NNW) 2,914 6.6 -16.9°
Reaches altitude 10° 09:00:38 10° 330° (NNW) 2,013 5.7 -16.4°
Maximum altitude 09:04:34 31° 268° (W) 1,111 3.9 -15.5°
Enters shadow 09:06:10 25° 230° (SW) 1,305 4.1 -15.2°
